[Date Prev][Date Next][Thread Prev][Thread Next] - [Date Index][Thread Index][Author Index]
2 Line ISS Keps 8-2
- Subject: [sarex] 2 Line ISS Keps 8-2
- From: "Dave Larsen PhD" <doc@xxxxxxxxxxx>
- Date: Fri, 2 Aug 2002 03:52:40 -0700
ISS
1 25544U 98067A 02214.25901620 .00081794 00000-0 10964-2 0 42
2 25544 51.6360 181.6134 0017888 93.4361 110.8632 15.57069414211215
----
Via the sarex mailing list at AMSAT.ORG courtesy of AMSAT-NA.
To unsubscribe, send "unsubscribe sarex" to Majordomo@amsat.org
AMSAT Home